Debrecen, Hungary

4:33 AM CEST on September 23, 2017 (GMT +0200)
Debrecen

Weather History for LHDC - March, 2013

Change the Weather History Date:

Sunday, March 10, 2013

  Actual Average Record
Temperature  
Mean Temperature 46 °F -  
Max Temperature 51 °F 55 °F - ()
Min Temperature 40 °F 36 °F - ()
Degree Days  
Heating Degree Days 20    
Moisture  
Dew Point 45 °F    
Average Humidity 93    
Maximum Humidity 100    
Minimum Humidity 87    
Precipitation  
Precipitation 0.08 in 0.05 in - ()
Sea Level Pressure  
Sea Level Pressure 29.52 in    
Wind  
Wind Speed 3 mph ()    
Max Wind Speed 7 mph    
Max Gust Speed -    
Visibility 3.4 miles    
Events Rain    
T = Trace of Precipitation, MM = Missing Value Source: Averaged Metar Reports

Daily Weather History Graph

Daily Weather History Graph

Search for Another Location

Airport or City:

Trip Planner

Search our weather history database for the weather conditions in past years. The results will help you decide how hot, cold, wet, or windy it might be!

Date:

Astronomy

Mar. 10, 2013 Rise Set
Actual Time 5:56 AM CET 5:31 PM CET
Civil Twilight 5:26 AM CET 6:02 PM CET
Nautical Twilight 4:50 AM CET 6:38 PM CET
Astronomical Twilight 4:14 AM CET 7:14 PM CET
Moon 4:49 AM CET (3/10) 4:17 PM CET (3/10)
Length of Visible Light 12h 36m
Length of Day
11h 35m
Waning Crescent, 2% of the Moon is Illuminated
Mar 10
Waning Crescent
Mar 11
New
Mar 19
First Quarter
Mar 27
Full
Apr 3
Last Quarter

Hourly Weather History & Observations

Time (CET) Temp. Windchill Dew Point Humidity Pressure Visibility Wind Dir Wind Speed Gust Speed Precip Events Conditions
1:00 AM 44 °F - 41 °F 87% 29.58 in - NNE 6.7 mph - -  
2:58 AM 42.8 °F 38.6 °F 39.2 °F 87% 29.53 in - NNE 6.9 mph - N/A   Unknown
5:15 AM 41.0 °F 37.1 °F 39.2 °F 93% 29.53 in 1.9 mi NE 5.8 mph - N/A Rain Light Rain
6:15 AM 41.0 °F 38.0 °F 41.0 °F 100% 29.53 in 1.7 mi NE 4.6 mph - N/A Rain Light Rain
7:00 AM 41 °F - 40 °F 97% 29.54 in 1 mi North 2.2 mph - - Rain Light Rain
7:00 AM - - - N/A% - 2.5 mi Variable 3.5 mph - N/A   Overcast
7:15 AM 41.0 °F - 41.0 °F 100% 29.53 in 1.4 mi NNW 1.2 mph - N/A Rain Light Rain
7:45 AM 42.8 °F - 41.0 °F 93% 29.53 in 1.4 mi NW 2.3 mph - N/A Rain Light Rain
8:15 AM 42.8 °F - 41.0 °F 93% 29.53 in 1.4 mi North 2.3 mph - N/A Rain Light Rain
8:45 AM 42.8 °F - 42.8 °F 100% 29.53 in 1.4 mi North 2.3 mph - N/A Rain Light Rain
9:00 AM - - - N/A% - 2.5 mi Variable 3.5 mph - N/A   Overcast
9:15 AM 42.8 °F - 42.8 °F 100% 29.53 in 1.4 mi NNW 2.3 mph - N/A Rain Light Rain
9:45 AM 44.6 °F - 42.8 °F 93% 29.53 in 1.6 mi NNW 1.2 mph - N/A Rain Light Rain
10:15 AM 44.6 °F - 44.6 °F 100% 29.53 in 1.6 mi NE 1.2 mph - N/A Rain Light Rain
10:45 AM 46.4 °F - 44.6 °F 93% 29.53 in - Calm Calm - N/A   Overcast
11:15 AM 46.4 °F - 44.6 °F 93% 29.53 in 2.5 mi East 1.2 mph - N/A   Overcast
11:45 AM 48.2 °F - 46.4 °F 93% 29.53 in 3.1 mi East 1.2 mph - N/A   Overcast
12:00 PM - - - N/A% - 3.7 mi Variable 3.5 mph - N/A   Overcast
12:15 PM 50.0 °F - 46.4 °F 87% 29.53 in 3.1 mi Calm Calm - N/A   Overcast
12:45 PM 50.0 °F - 46.4 °F 87% 29.53 in 3.7 mi West 4.6 mph - N/A   Overcast
1:00 PM 49 °F - 46 °F 87% 29.53 in 4 mi West 4.5 mph - -   Partly Cloudy
1:15 PM 50.0 °F - 48.2 °F 94% 29.50 in 6.2 mi SW 2.3 mph - N/A   Overcast
1:45 PM 50.0 °F - 48.2 °F 94% 29.50 in 6.2 mi WSW 3.5 mph - N/A   Mostly Cloudy
2:15 PM 50.0 °F - 48.2 °F 94% 29.50 in 6.2 mi SW 5.8 mph - N/A   Mostly Cloudy
2:45 PM 51.8 °F - 48.2 °F 88% 29.53 in 6.2 mi SW 4.6 mph - N/A   Scattered Clouds
3:15 PM 51.8 °F - 48.2 °F 88% 29.50 in 6.2 mi WSW 4.6 mph - N/A   Scattered Clouds
3:45 PM 51.8 °F - 48.2 °F 88% 29.50 in 6.2 mi West 4.6 mph - N/A   Scattered Clouds
4:15 PM 51.8 °F - 48.2 °F 88% 29.50 in 6.2 mi WNW 4.6 mph - N/A   Scattered Clouds
4:45 PM 50.0 °F - 48.2 °F 94% 29.50 in 6.2 mi NW 3.5 mph - N/A   Scattered Clouds
5:00 PM - - - N/A% - - North - - N/A   Unknown
7:00 PM 49 °F - 47 °F 92% 29.51 in - East 2.2 mph - -